Weather History for Dayton Wright, OH

Change the Weather History Date:

Wednesday, July 31, 2013

  Actual Average (KFFO) Record (KFFO)
Temperature  
Mean Temperature 68 °F -  
Max Temperature 73 °F 82 °F 96 °F (1999)
Min Temperature 64 °F 61 °F 55 °F (1997)
Cooling Degree Days 4    
Growing Degree Days 18 (Base 50)    
Moisture  
Dew Point 64 °F    
Average Humidity 84    
Maximum Humidity 100    
Minimum Humidity 75    
Precipitation  
Precipitation 0.00 in - - ()
Sea Level Pressure  
Sea Level Pressure 30.04 in    
Wind  
Wind Speed 6 mph (South)    
Max Wind Speed 12 mph    
Max Gust Speed -    
Visibility 8 miles    
Events      
Averages and records for this station are not official NWS values.
T = Trace of Precipitation, MM = Missing Value Source: NWS Daily Summary

Daily Weather History Graph

Daily Weather History Graph

Search for Another Location

Airport:

Trip Planner

Search our weather history database for the weather conditions in past years. The results will help you decide how hot, cold, wet, or windy it might be!

Date:

Astronomy

Jul. 31, 2013 Rise Set
Actual Time 6:35 AM EDT 8:50 PM EDT
Civil Twilight 6:05 AM EDT 9:20 PM EDT
Nautical Twilight 5:28 AM EDT 9:57 PM EDT
Astronomical Twilight 4:47 AM EDT 10:37 PM EDT
Moon 1:30 AM EDT (7/31) 4:05 PM EDT (7/31)
Length of Visible Light 15h 15m
Length of Day
14h 14m
Waning Crescent, 32% of the Moon is Illuminated
Jul 31
Waning Crescent
Aug 6
New
Aug 14
First Quarter
Aug 20
Full
Aug 28
Last Quarter

Hourly Weather History & Observations

Time (EDT) Temp. Dew Point Humidity Pressure Visibility Wind Dir Wind Speed Gust Speed Precip Events Conditions
12:53 AM 69.1 °F 61.0 °F 75% 30.12 in 10.0 mi ESE 3.5 mph - N/A   Clear
1:53 AM 68.0 °F 62.1 °F 81% 30.12 in 10.0 mi Calm Calm - N/A   Overcast
3:53 AM 68.0 °F 61.0 °F 78% 30.10 in 10.0 mi SSE 5.8 mph - N/A   Clear
4:53 AM 66.9 °F 62.1 °F 84% 30.09 in 10.0 mi South 9.2 mph - N/A   Scattered Clouds
5:53 AM 66.9 °F 62.1 °F 84% 30.09 in 10.0 mi South 8.1 mph - N/A   Overcast
6:53 AM 66.0 °F 62.1 °F 87% 30.09 in 10.0 mi South 8.1 mph - N/A   Overcast
6:58 AM 66.2 °F 62.6 °F 88% 30.11 in 10.0 mi South 8.1 mph - N/A   Overcast
7:43 AM 64.4 °F 62.6 °F 94% 30.11 in 8.0 mi South 6.9 mph - N/A   Overcast
7:53 AM 64.9 °F 63.0 °F 93% 30.09 in 7.0 mi SSE 5.8 mph - N/A   Overcast
8:41 AM 64.4 °F 64.4 °F 100% 30.10 in 2.0 mi South 5.8 mph - N/A   Overcast
8:53 AM 64.9 °F 63.0 °F 93% 30.09 in 2.0 mi South 11.5 mph - N/A   Overcast
9:23 AM 64.4 °F 64.4 °F 100% 30.10 in 3.0 mi South 8.1 mph - N/A   Overcast
9:53 AM 66.0 °F 63.0 °F 90% 30.08 in 9.0 mi South 9.2 mph - N/A   Overcast
10:13 AM 66.2 °F 62.6 °F 88% 30.09 in 10.0 mi South 9.2 mph - N/A   Overcast
10:53 AM 66.9 °F 63.0 °F 87% 30.07 in 10.0 mi South 8.1 mph - N/A   Overcast
11:53 AM 68.0 °F 64.0 °F 87% 30.06 in 10.0 mi South 5.8 mph - N/A   Overcast
12:53 PM 69.1 °F 64.0 °F 84% 30.05 in 9.0 mi SSE 4.6 mph - N/A   Overcast
1:53 PM 70.0 °F 64.0 °F 81% 30.03 in 6.0 mi South 8.1 mph - N/A   Haze
2:08 PM 71.6 °F 64.4 °F 78% 30.04 in 6.0 mi South 4.6 mph - N/A   Haze
2:53 PM 71.1 °F 64.9 °F 81% 30.02 in 7.0 mi South 5.8 mph - N/A   Overcast
3:53 PM 72.0 °F 64.9 °F 78% 30.01 in 5.0 mi South 4.6 mph - N/A   Haze
4:53 PM 73.0 °F 64.9 °F 76% 29.99 in 5.0 mi South 4.6 mph - N/A   Haze
5:53 PM 73.0 °F 64.9 °F 76% 29.98 in 5.0 mi South 3.5 mph - N/A   Haze
6:49 PM 73.4 °F 66.2 °F 78% 29.98 in 7.0 mi SSE 3.5 mph - N/A   Overcast
6:53 PM 73.0 °F 64.9 °F 76% 29.96 in 7.0 mi South 4.6 mph - N/A   Overcast
7:53 PM 73.0 °F 66.0 °F 79% 29.95 in 6.0 mi South 4.6 mph - N/A   Haze
8:53 PM 72.0 °F 66.0 °F 81% 29.95 in 6.0 mi SSW 3.5 mph - N/A   Haze
9:53 PM 71.1 °F 66.0 °F 84% 29.96 in 8.0 mi South 3.5 mph - N/A   Overcast
10:53 PM 71.1 °F 66.0 °F 84% 29.96 in 9.0 mi SSW 4.6 mph - N/A   Overcast
11:10 PM 71.6 °F 66.2 °F 83% 29.97 in 9.0 mi SSW 4.6 mph - N/A   Overcast
11:22 PM 71.6 °F 66.2 °F 83% 29.98 in 9.0 mi SW 3.5 mph - N/A   Overcast
11:53 PM 71.1 °F 66.0 °F 84% 29.95 in 10.0 mi SSW 4.6 mph - N/A   Overcast